VVTSVDPP

Guest
Details From VVTS - TAN SON NHAT INTL
To VDPP - Phnom Penh Intl
Flight Number -
Tags generated
Created
Modified
Stats Distance 115 nm / 214 km
Max Altitude 14,100 ft / 4,298 m
Waypoints 4
Social Downloads 1
Likes 0
Share VATSIM

Download

Looking for another format? Having issues loading an existing format? Contact us
Advertisement - Login to hide

Notes

Basic altitude profile: - Ascent Rate: 3000ft/min - Ascent Speed: 310kts - Cruise Altitude: 30000ft - Cruise Speed: 350kts - Descent Rate: 2000ft/min - Descent Speed: 250kts Options: - Use NATs: yes - Use PACOTS: yes - Use low airways: yes - Use high airways: yes

Route

VVTS POPET R468 PNH VDPP

ID Type Via Altitude Latitude Longitude Leg Dist Tot Dist Heading (true) Name
O VVTS APT - 0 ft / 0 m 10.81875˚ 106.65173˚ - 0 nm - TAN SON NHAT INTL
POPET FIX - 14,100 ft / 4,298 m 11.10000˚ 105.95000˚ 44 nm 44 nm 292° / 292° -
PNH VOR R468 (AWY-LO) 5,000 ft / 1,524 m 11.54667˚ 104.84167˚ 70 nm 115 nm 292° / 292° PHNOM PENH VOR-DME
O VDPP APT - 0 ft / 0 m 11.54654˚ 104.84414˚ 0 nm 115 nm 93° / 93° Phnom Penh Intl

Altitude Profile

Advertisement - Login to hide

VVTS

Details ICAO VVTS (SGN)
Name TAN SON NHAT INTL
Region Vietnam
Timezone Asia/Ho_Chi_Minh (UTC+7.0)
Stats Elevation 33 ft / 10 m (AMSL)
Location 10.818750° 106.651735°
Runways 2
Magnetic Variation 0.488° W

METAR

VVTS 150430Z VRB03KT 7000 SCT017 SCT050 30/25 Q1011 NOSIG

Decode

TAF

TAF VVTS 142300Z 1500/1606 VRB03KT 5000 BR SCT015 SCT040 BECMG 1501/1502 9999 NSW BECMG 1505/1506 16010KT TEMPO 1507/1512 5000 TSRA BKN013 FEW015CB

Decode

Departure Runways

ID Width Length Bearing (true) Bearing (mag) Surface Threshold Offset Overrun Length
07L 148 ft / 45 m 9,998 ft / 3,047 m 69.00° 69.49° Asphalt 0 ft / 0 m 1,040 ft / 317 m
07R 148 ft / 45 m 12,617 ft / 3,846 m 68.90° 69.39° Concrete 2,543 ft / 775 m 863 ft / 263 m
25L 148 ft / 45 m 12,617 ft / 3,846 m 248.90° 249.39° Concrete 0 ft / 0 m 1,027 ft / 313 m
25R 148 ft / 45 m 9,998 ft / 3,047 m 249.00° 249.49° Asphalt 0 ft / 0 m 1,053 ft / 321 m

VDPP

Details ICAO VDPP (PNH)
Name Phnom Penh Intl
Region Cambodia
Timezone Asia/Phnom_Penh (UTC+7.0)
Stats Elevation 40 ft / 12 m (AMSL)
Location 11.546542° 104.844142°
Runways 1
Magnetic Variation 0.493° W

METAR

VDPP 150430Z 02006KT 340V050 9999 FEW017 31/23 Q1011

Decode

TAF

TAF VDPP 142300Z 1500/1518 04005KT 9999 FEW017= TAF VDSR 142300Z 1500/1518 05005KT 9999 SCT017

Decode

Destination Runways

ID Width Length Bearing (true) Bearing (mag) Surface Threshold Offset Overrun Length
05 144 ft / 44 m 9,815 ft / 2,992 m 45.61° 46.10° Asphalt 400 ft / 122 m 0 ft / 0 m
23 144 ft / 44 m 9,815 ft / 2,992 m 225.61° 226.10° Asphalt 492 ft / 150 m 0 ft / 0 m

Approach Navaids

Runway Type Ident Frequency Range Bearing (true) Bearing (mag) Slope Elevation
23 Localiser IPNP 109.70 MHz 18 nm / 33 km 225.62° 226.11° - 40 ft / 12 m (AMSL)
23 Glidescope IPNP 109.70 MHz 10 nm / 19 km 225.61° 226.10° 3.00° 37 ft / 11 m (AMSL)

Popular Alternatives